Station Historical Data
Daily Summary for September 24, 2017 Units:  Metric    English   Both
« Previous Day
Next Day »
Daily Weekly Monthly Yearly Custom
  High: Low: Average:
Temperature: 29 °C 18.2 °C 22.6 °C
Dew Point: 19.8 °C 16.5 °C 17.8 °C
Humidity: 91% 50% 76%
Wind Speed: 16.1km/h 3.2km/h 7.1km/h
Wind Gust: 16.1km/h - -
Wind- - ENE
Pressure: 1019.2 hPa 1015.5 hPa -
Precipitation: 0 mm    
Historical Graphs
 
 
Tabular Data for September 24, 2017
Time Temperature Dew Point Pressure Wind Wind Speed Wind Gust Humidity Rainfall Rate (Hourly) solar Conditions
00:00 20.3 °C 17.9 °C 1016.8 hPa NE 8 km/h 8 km/h 86% 0 mm WeatherDisplay:10.37 W/m2 FEW
00:05 20.2 °C 17.9 °C 1016.8 hPa NE 8 km/h 8 km/h 87% 0 mm WeatherDisplay:10.37 W/m2 FEW
00:10 20.1 °C 17.9 °C 1016.8 hPa NE 8 km/h 8 km/h 87% 0 mm WeatherDisplay:10.37 W/m2 FEW
00:20 20.1 °C 17.8 °C 1016.8 hPa North 4.8 km/h 4.8 km/h 87% 0 mm WeatherDisplay:10.37 W/m2 FEW
00:25 20 °C 18 °C 1016.8 hPa North 4.8 km/h 4.8 km/h 88% 0 mm WeatherDisplay:10.37 W/m2 FEW
00:30 20 °C 17.9 °C 1016.8 hPa North 4.8 km/h 4.8 km/h 88% 0 mm WeatherDisplay:10.37 W/m2 FEW
00:40 19.9 °C 17.9 °C 1016.8 hPa North 4.8 km/h 4.8 km/h 88% 0 mm WeatherDisplay:10.37 W/m2 FEW
00:45 19.9 °C 17.9 °C 1016.8 hPa North 4.8 km/h 4.8 km/h 88% 0 mm WeatherDisplay:10.37 W/m2 FEW
00:50 19.9 °C 17.8 °C 1016.8 hPa North 4.8 km/h 4.8 km/h 88% 0 mm WeatherDisplay:10.37 W/m2 FEW
00:55 19.8 °C 17.8 °C 1016.8 hPa North 4.8 km/h 4.8 km/h 88% 0 mm WeatherDisplay:10.37 W/m2 FEW
01:00 19.8 °C 17.8 °C 1016.5 hPa North 4.8 km/h 4.8 km/h 88% 0 mm WeatherDisplay:10.37 W/m2 FEW
01:10 19.8 °C 17.6 °C 1016.5 hPa North 4.8 km/h 4.8 km/h 87% 0 mm WeatherDisplay:10.37 W/m2 FEW
01:15 19.8 °C 17.6 °C 1016.5 hPa NNE 4.8 km/h 4.8 km/h 87% 0 mm WeatherDisplay:10.37 W/m2 FEW
01:20 19.8 °C 17.7 °C 1016.5 hPa NNE 4.8 km/h 4.8 km/h 88% 0 mm WeatherDisplay:10.37 W/m2 FEW
01:25 19.7 °C 17.7 °C 1016.5 hPa NNE 4.8 km/h 4.8 km/h 88% 0 mm WeatherDisplay:10.37 W/m2 FEW
01:30 19.7 °C 17.7 °C 1016.5 hPa NNE 4.8 km/h 4.8 km/h 88% 0 mm WeatherDisplay:10.37 W/m2 FEW
01:35 19.7 °C 17.6 °C 1016.5 hPa NNE 4.8 km/h 4.8 km/h 88% 0 mm WeatherDisplay:10.37 W/m2 FEW
01:40 19.6 °C 17.6 °C 1016.5 hPa NNE 4.8 km/h 4.8 km/h 88% 0 mm WeatherDisplay:10.37 W/m2 FEW
01:45 19.6 °C 17.6 °C 1016.5 hPa NNE 4.8 km/h 4.8 km/h 88% 0 mm WeatherDisplay:10.37 W/m2 FEW
01:50 19.6 °C 17.6 °C 1016.5 hPa NNE 4.8 km/h 4.8 km/h 88% 0 mm WeatherDisplay:10.37 W/m2 FEW
01:55 19.6 °C 17.6 °C 1016.5 hPa NNE 4.8 km/h 4.8 km/h 88% 0 mm WeatherDisplay:10.37 W/m2 FEW
02:00 19.6 °C 17.5 °C 1016.5 hPa NNE 4.8 km/h 4.8 km/h 88% 0 mm WeatherDisplay:10.37 W/m2 FEW
02:05 19.5 °C 17.4 °C 1016.5 hPa NNE 4.8 km/h 4.8 km/h 88% 0 mm WeatherDisplay:10.37 W/m2 FEW
02:10 19.4 °C 17.4 °C 1016.8 hPa NNE 4.8 km/h 4.8 km/h 88% 0 mm WeatherDisplay:10.37 W/m2 FEW
02:15 19.4 °C 17.3 °C 1016.5 hPa NNE 4.8 km/h 4.8 km/h 88% 0 mm WeatherDisplay:10.37 W/m2 CLR
02:20 19.3 °C 17.4 °C 1016.8 hPa NNE 4.8 km/h 4.8 km/h 89% 0 mm WeatherDisplay:10.37 W/m2 CLR
02:25 19.3 °C 17.4 °C 1016.8 hPa NNE 4.8 km/h 4.8 km/h 89% 0 mm WeatherDisplay:10.37 W/m2 CLR
02:30 19.2 °C 17.4 °C 1016.5 hPa NNE 4.8 km/h 4.8 km/h 89% 0 mm WeatherDisplay:10.37 W/m2 CLR
02:35 19.2 °C 17.4 °C 1016.5 hPa NNE 4.8 km/h 4.8 km/h 89% 0 mm WeatherDisplay:10.37 W/m2 CLR
02:40 19.2 °C 17.3 °C 1016.5 hPa NNE 4.8 km/h 4.8 km/h 89% 0 mm WeatherDisplay:10.37 W/m2 CLR
02:45 19.1 °C 17.3 °C 1016.5 hPa NNE 4.8 km/h 4.8 km/h 89% 0 mm WeatherDisplay:10.37 W/m2 CLR
02:50 19 °C 17.2 °C 1016.5 hPa NNE 4.8 km/h 4.8 km/h 89% 0 mm WeatherDisplay:10.37 W/m2 CLR
02:55 18.9 °C 17.1 °C 1016.5 hPa NNE 4.8 km/h 4.8 km/h 89% 0 mm WeatherDisplay:10.37 W/m2 CLR
03:00 18.9 °C 17.1 °C 1016.8 hPa NNE 4.8 km/h 4.8 km/h 89% 0 mm WeatherDisplay:10.37 W/m2 CLR
03:05 18.8 °C 17.2 °C 1016.5 hPa NNE 4.8 km/h 4.8 km/h 90% 0 mm WeatherDisplay:10.37 W/m2 CLR
03:10 18.8 °C 17.1 °C 1016.5 hPa NNE 4.8 km/h 4.8 km/h 90% 0 mm WeatherDisplay:10.37 W/m2 CLR
03:15 18.8 °C 17.1 °C 1016.5 hPa NNE 4.8 km/h 4.8 km/h 90% 0 mm WeatherDisplay:10.37 W/m2 CLR
03:20 18.7 °C 17.1 °C 1016.5 hPa NNE 4.8 km/h 4.8 km/h 90% 0 mm WeatherDisplay:10.37 W/m2 CLR
03:25 18.7 °C 17.1 °C 1016.5 hPa NNE 4.8 km/h 4.8 km/h 90% 0 mm WeatherDisplay:10.37 W/m2 CLR
03:30 18.7 °C 17.1 °C 1016.5 hPa NNE 4.8 km/h 4.8 km/h 90% 0 mm WeatherDisplay:10.37 W/m2 CLR
03:40 18.7 °C 17.1 °C 1016.5 hPa NNE 4.8 km/h 4.8 km/h 90% 0 mm WeatherDisplay:10.37 W/m2 CLR
03:45 18.7 °C 17.1 °C 1016.5 hPa NNE 4.8 km/h 4.8 km/h 90% 0 mm WeatherDisplay:10.37 W/m2 CLR
03:50 18.7 °C 17.1 °C 1016.8 hPa NNE 4.8 km/h 4.8 km/h 90% 0 mm WeatherDisplay:10.37 W/m2 CLR
03:55 18.7 °C 17.1 °C 1016.8 hPa NNE 4.8 km/h 4.8 km/h 90% 0 mm WeatherDisplay:10.37 W/m2 CLR
04:00 18.7 °C 17 °C 1016.8 hPa NNE 4.8 km/h 4.8 km/h 90% 0 mm WeatherDisplay:10.37 W/m2 CLR
04:05 18.7 °C 17 °C 1016.8 hPa NNE 4.8 km/h 4.8 km/h 90% 0 mm WeatherDisplay:10.37 W/m2 CLR
04:10 18.6 °C 16.9 °C 1016.8 hPa NNE 4.8 km/h 4.8 km/h 90% 0 mm WeatherDisplay:10.37 W/m2 CLR
04:15 18.6 °C 16.9 °C 1016.8 hPa NNE 3.2 km/h 4.8 km/h 90% 0 mm WeatherDisplay:10.37 W/m2 CLR
04:20 18.6 °C 16.9 °C 1016.8 hPa NNE 3.2 km/h 3.2 km/h 90% 0 mm WeatherDisplay:10.37 W/m2 CLR
04:25 18.4 °C 16.8 °C 1016.8 hPa NNE 3.2 km/h 3.2 km/h 90% 0 mm WeatherDisplay:10.37 W/m2 CLR
04:30 18.4 °C 16.7 °C 1016.8 hPa NNE 3.2 km/h 3.2 km/h 90% 0 mm WeatherDisplay:10.37 W/m2 CLR
04:40 18.3 °C 16.6 °C 1016.8 hPa NNE 3.2 km/h 3.2 km/h 90% 0 mm WeatherDisplay:10.37 W/m2 CLR
04:45 18.3 °C 16.6 °C 1016.8 hPa NNE 3.2 km/h 3.2 km/h 90% 0 mm WeatherDisplay:10.37 W/m2 CLR
04:50 18.2 °C 16.6 °C 1016.8 hPa NNE 3.2 km/h 3.2 km/h 90% 0 mm WeatherDisplay:10.37 W/m2 CLR
04:55 18.2 °C 16.7 °C 1016.8 hPa NNE 3.2 km/h 3.2 km/h 91% 0 mm WeatherDisplay:10.37 W/m2 CLR
05:00 18.2 °C 16.7 °C 1016.8 hPa NNE 3.2 km/h 3.2 km/h 91% 0 mm WeatherDisplay:10.37 W/m2 CLR
05:05 18.2 °C 16.7 °C 1016.8 hPa NNE 3.2 km/h 3.2 km/h 91% 0 mm WeatherDisplay:10.37 W/m2 CLR
05:10 18.3 °C 16.8 °C 1016.8 hPa NNE 3.2 km/h 3.2 km/h 91% 0 mm WeatherDisplay:10.37 W/m2 CLR
05:15 18.3 °C 16.8 °C 1017.2 hPa East 3.2 km/h 3.2 km/h 91% 0 mm WeatherDisplay:10.37 W/m2 CLR
05:20 18.3 °C 16.8 °C 1017.2 hPa ESE 3.2 km/h 3.2 km/h 91% 0 mm WeatherDisplay:10.37 W/m2 CLR
05:30 18.2 °C 16.6 °C 1017.2 hPa ESE 3.2 km/h 3.2 km/h 90% 0 mm WeatherDisplay:10.37 W/m2 CLR
05:35 18.3 °C 16.6 °C 1017.2 hPa ESE 3.2 km/h 3.2 km/h 90% 0 mm WeatherDisplay:10.37 W/m2 CLR
05:40 18.3 °C 16.6 °C 1017.2 hPa ESE 3.2 km/h 3.2 km/h 90% 0 mm WeatherDisplay:10.37 W/m2 CLR
05:45 18.3 °C 16.6 °C 1017.2 hPa ESE 3.2 km/h 3.2 km/h 90% 0 mm WeatherDisplay:10.37 W/m2 CLR
05:50 18.3 °C 16.6 °C 1017.2 hPa ESE 3.2 km/h 3.2 km/h 90% 0 mm WeatherDisplay:10.37 W/m2 CLR
05:55 18.3 °C 16.5 °C 1017.2 hPa ESE 3.2 km/h 3.2 km/h 89% 0 mm WeatherDisplay:10.37 W/m2 CLR
06:00 18.4 °C 16.7 °C 1017.2 hPa ESE 3.2 km/h 3.2 km/h 90% 0 mm WeatherDisplay:10.37 W/m2 CLR
06:05 18.4 °C 16.6 °C 1017.2 hPa ESE 3.2 km/h 3.2 km/h 89% 0 mm WeatherDisplay:10.37 W/m2 CLR
06:10 18.3 °C 16.5 °C 1017.5 hPa ESE 3.2 km/h 3.2 km/h 89% 0 mm WeatherDisplay:10.37 W/m2 CLR
06:15 18.3 °C 16.5 °C 1017.5 hPa ENE 3.2 km/h 3.2 km/h 89% 0 mm WeatherDisplay:10.37 W/m2 CLR
06:20 18.3 °C 16.5 °C 1017.5 hPa NNE 3.2 km/h 3.2 km/h 89% 0 mm WeatherDisplay:10.37 W/m2 CLR
06:25 18.3 °C 16.7 °C 1017.5 hPa NNE 3.2 km/h 3.2 km/h 90% 0 mm WeatherDisplay:10.37 W/m2 CLR
06:30 18.3 °C 16.5 °C 1017.5 hPa NNE 3.2 km/h 3.2 km/h 89% 0 mm WeatherDisplay:10.37 W/m2 CLR
06:40 18.3 °C 16.7 °C 1017.8 hPa NNE 3.2 km/h 3.2 km/h 90% 0 mm WeatherDisplay:10.37 W/m2 CLR
06:45 18.3 °C 16.7 °C 1017.8 hPa NNE 3.2 km/h 3.2 km/h 90% 0 mm WeatherDisplay:10.37 W/m2 CLR
06:50 18.4 °C 16.6 °C 1017.8 hPa NNE 3.2 km/h 3.2 km/h 89% 0 mm WeatherDisplay:10.37 W/m2 CLR
06:55 18.4 °C 16.6 °C 1017.8 hPa NNE 3.2 km/h 3.2 km/h 89% 0 mm WeatherDisplay:10.37 W/m2 CLR
07:00 18.5 °C 16.7 °C 1017.8 hPa NNE 3.2 km/h 3.2 km/h 89% 0 mm WeatherDisplay:10.37 W/m2 CLR
07:10 18.6 °C 16.8 °C 1018.2 hPa NNE 3.2 km/h 3.2 km/h 89% 0 mm WeatherDisplay:10.37 W/m2 CLR
07:15 18.6 °C 16.8 °C 1018.2 hPa NNE 3.2 km/h 3.2 km/h 89% 0 mm WeatherDisplay:10.37 W/m2 FEW
07:20 18.6 °C 16.8 °C 1018.2 hPa North 3.2 km/h 3.2 km/h 89% 0 mm WeatherDisplay:10.37 W/m2 FEW
07:25 18.6 °C 16.8 °C 1018.2 hPa North 3.2 km/h 3.2 km/h 89% 0 mm WeatherDisplay:10.37 W/m2 FEW
07:30 18.6 °C 16.8 °C 1018.2 hPa North 3.2 km/h 3.2 km/h 89% 0 mm WeatherDisplay:10.37 W/m2 FEW
07:35 18.7 °C 16.8 °C 1018.2 hPa North 3.2 km/h 3.2 km/h 89% 0 mm WeatherDisplay:10.37 W/m2 FEW
07:40 18.7 °C 16.9 °C 1018.2 hPa North 3.2 km/h 3.2 km/h 89% 0 mm WeatherDisplay:10.37 W/m2 FEW
07:45 18.8 °C 16.9 °C 1018.2 hPa North 3.2 km/h 3.2 km/h 89% 0 mm WeatherDisplay:10.37 W/m2 FEW
07:50 18.7 °C 16.9 °C 1018.2 hPa North 3.2 km/h 3.2 km/h 89% 0 mm WeatherDisplay:10.37 W/m2 FEW
07:55 18.7 °C 16.9 °C 1018.2 hPa North 3.2 km/h 3.2 km/h 89% 0 mm WeatherDisplay:10.37 W/m2 FEW
08:00 18.7 °C 16.9 °C 1018.2 hPa North 3.2 km/h 3.2 km/h 89% 0 mm WeatherDisplay:10.37 W/m2 FEW
08:10 18.8 °C 17.2 °C 1018.5 hPa North 3.2 km/h 3.2 km/h 90% 0 mm WeatherDisplay:10.37 W/m2 FEW
08:15 18.9 °C 17.2 °C 1018.5 hPa North 3.2 km/h 3.2 km/h 90% 0 mm WeatherDisplay:10.37 W/m2 BKN
08:20 18.9 °C 17.3 °C 1018.5 hPa North 3.2 km/h 3.2 km/h 90% 0 mm WeatherDisplay:10.37 W/m2 BKN
08:25 19.1 °C 17.4 °C 1018.5 hPa North 3.2 km/h 3.2 km/h 90% 0 mm WeatherDisplay:10.37 W/m2 BKN
08:30 19.2 °C 17.5 °C 1018.5 hPa North 3.2 km/h 3.2 km/h 90% 0 mm WeatherDisplay:10.37 W/m2 BKN
08:40 19.4 °C 17.6 °C 1018.5 hPa North 3.2 km/h 3.2 km/h 89% 0 mm WeatherDisplay:10.37 W/m2 BKN
08:45 19.6 °C 17.6 °C 1018.5 hPa North 3.2 km/h 3.2 km/h 88% 0 mm WeatherDisplay:10.37 W/m2 BKN
08:50 19.8 °C 17.6 °C 1018.5 hPa North 3.2 km/h 3.2 km/h 87% 0 mm WeatherDisplay:10.37 W/m2 BKN
08:55 19.9 °C 17.7 °C 1018.5 hPa North 3.2 km/h 3.2 km/h 87% 0 mm WeatherDisplay:10.37 W/m2 BKN
09:00 20.2 °C 17.7 °C 1018.5 hPa North 3.2 km/h 3.2 km/h 86% 0 mm WeatherDisplay:10.37 W/m2 BKN
09:05 20.3 °C 17.9 °C 1018.8 hPa North 3.2 km/h 3.2 km/h 86% 0 mm WeatherDisplay:10.37 W/m2 BKN
09:10 20.6 °C 18 °C 1018.8 hPa North 3.2 km/h 3.2 km/h 85% 0 mm WeatherDisplay:10.37 W/m2 BKN
09:15 20.9 °C 18.1 °C 1018.8 hPa NE 8 km/h 8 km/h 84% 0 mm WeatherDisplay:10.37 W/m2 BKN
09:20 21.1 °C 18.1 °C 1018.8 hPa NE 8 km/h 8 km/h 83% 0 mm WeatherDisplay:10.37 W/m2 BKN
09:25 21.2 °C 18.2 °C 1018.8 hPa NE 8 km/h 8 km/h 83% 0 mm WeatherDisplay:10.37 W/m2 BKN
09:30 21.3 °C 18.1 °C 1018.8 hPa NE 8 km/h 8 km/h 82% 0 mm WeatherDisplay:10.37 W/m2 BKN
09:40 21.4 °C 18.2 °C 1018.8 hPa NE 8 km/h 8 km/h 82% 0 mm WeatherDisplay:10.37 W/m2 BKN
09:45 21.5 °C 18.3 °C 1018.8 hPa NE 8 km/h 8 km/h 82% 0 mm WeatherDisplay:10.37 W/m2 BKN
09:50 21.7 °C 18.3 °C 1018.8 hPa NE 8 km/h 8 km/h 81% 0 mm WeatherDisplay:10.37 W/m2 BKN
09:55 21.8 °C 18.4 °C 1018.8 hPa NE 8 km/h 8 km/h 81% 0 mm WeatherDisplay:10.37 W/m2 BKN
10:00 22.1 °C 18.4 °C 1018.8 hPa NE 8 km/h 8 km/h 80% 0 mm WeatherDisplay:10.37 W/m2 BKN
10:05 22.3 °C 18.7 °C 1018.8 hPa NE 8 km/h 8 km/h 80% 0 mm WeatherDisplay:10.37 W/m2 BKN
10:10 22.5 °C 18.9 °C 1018.8 hPa NE 8 km/h 8 km/h 80% 0 mm WeatherDisplay:10.37 W/m2 BKN
10:15 22.7 °C 19.1 °C 1018.8 hPa NE 9.7 km/h 9.7 km/h 80% 0 mm WeatherDisplay:10.37 W/m2 BKN
10:20 22.9 °C 18.9 °C 1018.8 hPa ENE 9.7 km/h 9.7 km/h 78% 0 mm WeatherDisplay:10.37 W/m2 BKN
10:25 23.1 °C 19.1 °C 1018.8 hPa ENE 9.7 km/h 9.7 km/h 78% 0 mm WeatherDisplay:10.37 W/m2 BKN
10:30 23.2 °C 19.1 °C 1018.8 hPa ENE 9.7 km/h 9.7 km/h 78% 0 mm WeatherDisplay:10.37 W/m2 BKN
10:35 23.3 °C 18.8 °C 1018.8 hPa ENE 9.7 km/h 9.7 km/h 76% 0 mm WeatherDisplay:10.37 W/m2 BKN
10:40 23.4 °C 18.7 °C 1018.8 hPa ENE 9.7 km/h 9.7 km/h 75% 0 mm WeatherDisplay:10.37 W/m2 BKN
10:45 23.7 °C 18.7 °C 1018.8 hPa ENE 9.7 km/h 9.7 km/h 74% 0 mm WeatherDisplay:10.37 W/m2 BKN
10:50 23.7 °C 19 °C 1018.8 hPa ENE 9.7 km/h 9.7 km/h 75% 0 mm WeatherDisplay:10.37 W/m2 BKN
11:00 24.1 °C 19 °C 1018.8 hPa ENE 9.7 km/h 9.7 km/h 73% 0 mm WeatherDisplay:10.37 W/m2 BKN
11:10 25.4 °C 19.8 °C 1019.2 hPa ENE 9.7 km/h 9.7 km/h 71% 0 mm WeatherDisplay:10.37 W/m2 BKN
11:15 25.6 °C 19.5 °C 1019.2 hPa ENE 11.3 km/h 11.3 km/h 69% 0 mm WeatherDisplay:10.37 W/m2 BKN
11:20 25.6 °C 19.3 °C 1019.2 hPa ENE 11.3 km/h 11.3 km/h 68% 0 mm WeatherDisplay:10.37 W/m2 BKN
11:25 25.9 °C 19.8 °C 1018.8 hPa ENE 11.3 km/h 11.3 km/h 69% 0 mm WeatherDisplay:10.37 W/m2 BKN
11:30 26.4 °C 19.8 °C 1018.8 hPa ENE 11.3 km/h 11.3 km/h 67% 0 mm WeatherDisplay:10.37 W/m2 BKN
11:35 26.9 °C 19.8 °C 1018.8 hPa ENE 11.3 km/h 11.3 km/h 65% 0 mm WeatherDisplay:10.37 W/m2 BKN
11:40 27.1 °C 19.2 °C 1018.8 hPa ENE 11.3 km/h 11.3 km/h 62% 0 mm WeatherDisplay:10.37 W/m2 BKN
11:45 27.1 °C 18.7 °C 1018.8 hPa ENE 11.3 km/h 11.3 km/h 60% 0 mm WeatherDisplay:10.37 W/m2 BKN
11:50 27.2 °C 18.4 °C 1018.8 hPa ENE 11.3 km/h 11.3 km/h 59% 0 mm WeatherDisplay:10.37 W/m2 BKN
11:55 27.1 °C 18.1 °C 1018.8 hPa ENE 11.3 km/h 11.3 km/h 58% 0 mm WeatherDisplay:10.37 W/m2 BKN
12:00 26.8 °C 18.1 °C 1018.5 hPa ENE 11.3 km/h 11.3 km/h 59% 0 mm WeatherDisplay:10.37 W/m2 BKN
12:10 27.2 °C 18.8 °C 1018.5 hPa ENE 11.3 km/h 11.3 km/h 60% 0 mm WeatherDisplay:10.37 W/m2 BKN
12:20 27.7 °C 18.7 °C 1018.5 hPa ENE 16.1 km/h 16.1 km/h 58% 0 mm WeatherDisplay:10.37 W/m2 BKN
12:25 27.8 °C 17.6 °C 1018.5 hPa ENE 16.1 km/h 16.1 km/h 54% 0 mm WeatherDisplay:10.37 W/m2 BKN
12:30 27.9 °C 18.1 °C 1018.5 hPa ENE 16.1 km/h 16.1 km/h 55% 0 mm WeatherDisplay:10.37 W/m2 BKN
12:35 27.9 °C 17.7 °C 1018.5 hPa ENE 16.1 km/h 16.1 km/h 54% 0 mm WeatherDisplay:10.37 W/m2 BKN
12:40 27.9 °C 17.8 °C 1018.5 hPa ENE 16.1 km/h 16.1 km/h 54% 0 mm WeatherDisplay:10.37 W/m2 BKN
12:45 28.3 °C 18.4 °C 1018.2 hPa ENE 16.1 km/h 16.1 km/h 55% 0 mm WeatherDisplay:10.37 W/m2 BKN
12:50 28.5 °C 17.4 °C 1018.2 hPa ENE 16.1 km/h 16.1 km/h 51% 0 mm WeatherDisplay:10.37 W/m2 BKN
12:55 28.3 °C 17.8 °C 1018.2 hPa ENE 16.1 km/h 16.1 km/h 53% 0 mm WeatherDisplay:10.37 W/m2 BKN
13:00 28.4 °C 17.3 °C 1018.2 hPa ENE 16.1 km/h 16.1 km/h 51% 0 mm WeatherDisplay:10.37 W/m2 BKN
13:10 28.3 °C 17.6 °C 1018.2 hPa ENE 16.1 km/h 16.1 km/h 52% 0 mm WeatherDisplay:10.37 W/m2 BKN
13:15 28.3 °C 17.2 °C 1018.2 hPa ENE 14.5 km/h 16.1 km/h 51% 0 mm WeatherDisplay:10.37 W/m2 BKN
13:20 28.2 °C 16.8 °C 1018.2 hPa NE 14.5 km/h 14.5 km/h 50% 0 mm WeatherDisplay:10.37 W/m2 BKN
13:25 28.1 °C 17 °C 1017.8 hPa NE 14.5 km/h 14.5 km/h 51% 0 mm WeatherDisplay:10.37 W/m2 BKN
13:30 28 °C 16.6 °C 1017.8 hPa NE 14.5 km/h 14.5 km/h 50% 0 mm WeatherDisplay:10.37 W/m2 BKN
13:35 28 °C 17.2 °C 1017.8 hPa NE 14.5 km/h 14.5 km/h 52% 0 mm WeatherDisplay:10.37 W/m2 BKN
13:40 28.2 °C 17.7 °C 1017.5 hPa NE 14.5 km/h 14.5 km/h 53% 0 mm WeatherDisplay:10.37 W/m2 BKN
13:45 28.3 °C 16.8 °C 1017.5 hPa NE 14.5 km/h 14.5 km/h 50% 0 mm WeatherDisplay:10.37 W/m2 BKN
13:50 28.2 °C 17.4 °C 1017.5 hPa NE 14.5 km/h 14.5 km/h 52% 0 mm WeatherDisplay:10.37 W/m2 BKN
13:55 28.3 °C 17.5 °C 1017.5 hPa NE 14.5 km/h 14.5 km/h 52% 0 mm WeatherDisplay:10.37 W/m2 BKN
14:00 28.3 °C 17.5 °C 1017.2 hPa NE 14.5 km/h 14.5 km/h 52% 0 mm WeatherDisplay:10.37 W/m2 BKN
14:05 28.2 °C 17.7 °C 1017.5 hPa NE 14.5 km/h 14.5 km/h 53% 0 mm WeatherDisplay:10.37 W/m2 BKN
14:10 28.3 °C 17.5 °C 1017.2 hPa NE 14.5 km/h 14.5 km/h 52% 0 mm WeatherDisplay:10.37 W/m2 BKN
14:15 28.2 °C 17.1 °C 1017.2 hPa NE 14.5 km/h 14.5 km/h 51% 0 mm WeatherDisplay:10.37 W/m2 BKN
14:20 28.3 °C 17.5 °C 1017.2 hPa NE 14.5 km/h 14.5 km/h 52% 0 mm WeatherDisplay:10.37 W/m2 BKN
14:25 28.4 °C 17.9 °C 1017.2 hPa NE 14.5 km/h 14.5 km/h 53% 0 mm WeatherDisplay:10.37 W/m2 BKN
14:30 28.4 °C 17.9 °C 1017.2 hPa NE 14.5 km/h 14.5 km/h 53% 0 mm WeatherDisplay:10.37 W/m2 BKN
14:40 28.7 °C 17.6 °C 1016.8 hPa NE 14.5 km/h 14.5 km/h 51% 0 mm WeatherDisplay:10.37 W/m2 BKN
14:45 29 °C 17.8 °C 1016.8 hPa NE 14.5 km/h 14.5 km/h 51% 0 mm WeatherDisplay:10.37 W/m2 BKN
14:50 29 °C 18.2 °C 1016.8 hPa NE 14.5 km/h 14.5 km/h 52% 0 mm WeatherDisplay:10.37 W/m2 BKN
14:55 28.9 °C 17.5 °C 1016.8 hPa NE 14.5 km/h 14.5 km/h 50% 0 mm WeatherDisplay:10.37 W/m2 BKN
15:00 28.9 °C 17.8 °C 1016.8 hPa NE 14.5 km/h 14.5 km/h 51% 0 mm WeatherDisplay:10.37 W/m2 BKN
15:10 28.3 °C 17.2 °C 1016.8 hPa NE 14.5 km/h 14.5 km/h 51% 0 mm WeatherDisplay:10.37 W/m2 BKN
15:15 28 °C 17.5 °C 1016.8 hPa ENE 12.9 km/h 14.5 km/h 53% 0 mm WeatherDisplay:10.37 W/m2 BKN
15:20 27.7 °C 17.6 °C 1016.8 hPa East 12.9 km/h 12.9 km/h 54% 0 mm WeatherDisplay:10.37 W/m2 BKN
15:25 27.7 °C 17.8 °C 1016.8 hPa East 12.9 km/h 12.9 km/h 55% 0 mm WeatherDisplay:10.37 W/m2 BKN
15:30 27.7 °C 18.2 °C 1016.8 hPa East 12.9 km/h 12.9 km/h 56% 0 mm WeatherDisplay:10.37 W/m2 BKN
15:35 27.7 °C 17.6 °C 1016.8 hPa East 12.9 km/h 12.9 km/h 54% 0 mm WeatherDisplay:10.37 W/m2 BKN
15:40 27.6 °C 18 °C 1016.8 hPa East 12.9 km/h 12.9 km/h 56% 0 mm WeatherDisplay:10.37 W/m2 BKN
15:45 27.4 °C 18.1 °C 1016.8 hPa East 12.9 km/h 12.9 km/h 57% 0 mm WeatherDisplay:10.37 W/m2 BKN
15:50 27.3 °C 18.3 °C 1016.8 hPa East 12.9 km/h 12.9 km/h 58% 0 mm WeatherDisplay:10.37 W/m2 BKN
15:55 27.3 °C 18 °C 1016.8 hPa East 12.9 km/h 12.9 km/h 57% 0 mm WeatherDisplay:10.37 W/m2 BKN
16:00 27.2 °C 17.9 °C 1016.8 hPa East 12.9 km/h 12.9 km/h 57% 0 mm WeatherDisplay:10.37 W/m2 BKN
16:10 27.1 °C 17.8 °C 1016.5 hPa East 12.9 km/h 12.9 km/h 57% 0 mm WeatherDisplay:10.37 W/m2 BKN
16:15 27.3 °C 18.3 °C 1016.5 hPa ENE 11.3 km/h 12.9 km/h 58% 0 mm WeatherDisplay:10.37 W/m2 BKN
16:20 27.5 °C 17.9 °C 1016.1 hPa ENE 11.3 km/h 11.3 km/h 56% 0 mm WeatherDisplay:10.37 W/m2 BKN
16:25 27.7 °C 18.7 °C 1016.1 hPa ENE 11.3 km/h 11.3 km/h 58% 0 mm WeatherDisplay:10.37 W/m2 BKN
16:30 27.8 °C 17.9 °C 1016.1 hPa ENE 11.3 km/h 11.3 km/h 55% 0 mm WeatherDisplay:10.37 W/m2 BKN
16:35 27.9 °C 18.1 °C 1016.1 hPa ENE 11.3 km/h 11.3 km/h 55% 0 mm WeatherDisplay:10.37 W/m2 BKN
16:40 27.9 °C 18.1 °C 1016.1 hPa ENE 11.3 km/h 11.3 km/h 55% 0 mm WeatherDisplay:10.37 W/m2 BKN
16:45 27.9 °C 18.6 °C 1015.8 hPa ENE 11.3 km/h 11.3 km/h 57% 0 mm WeatherDisplay:10.37 W/m2 BKN
16:50 27.9 °C 17.7 °C 1015.8 hPa ENE 11.3 km/h 11.3 km/h 54% 0 mm WeatherDisplay:10.37 W/m2 BKN
17:00 27.6 °C 17.8 °C 1015.8 hPa ENE 11.3 km/h 11.3 km/h 55% 0 mm WeatherDisplay:10.37 W/m2 BKN
17:10 27.5 °C 17.9 °C 1015.8 hPa ENE 11.3 km/h 11.3 km/h 56% 0 mm WeatherDisplay:10.37 W/m2 BKN
17:15 27.5 °C 17.9 °C 1015.8 hPa ENE 8 km/h 11.3 km/h 56% 0 mm WeatherDisplay:10.37 W/m2 FEW
17:20 27.4 °C 18.2 °C 1015.8 hPa ENE 8 km/h 8 km/h 57% 0 mm WeatherDisplay:10.37 W/m2 FEW
17:25 27.4 °C 18.4 °C 1015.8 hPa ENE 8 km/h 8 km/h 58% 0 mm WeatherDisplay:10.37 W/m2 FEW
17:30 27.4 °C 18.7 °C 1015.8 hPa ENE 8 km/h 8 km/h 59% 0 mm WeatherDisplay:10.37 W/m2 FEW
17:35 27.1 °C 18.1 °C 1015.8 hPa ENE 8 km/h 8 km/h 58% 0 mm WeatherDisplay:10.37 W/m2 FEW
17:40 26.8 °C 18.2 °C 1015.8 hPa ENE 8 km/h 8 km/h 59% 0 mm WeatherDisplay:10.37 W/m2 FEW
17:45 26.6 °C 18.2 °C 1015.8 hPa ENE 8 km/h 8 km/h 60% 0 mm WeatherDisplay:10.37 W/m2 FEW
17:55 26.2 °C 18.6 °C 1015.8 hPa ENE 8 km/h 8 km/h 63% 0 mm WeatherDisplay:10.37 W/m2 FEW
18:00 25.9 °C 18.6 °C 1015.5 hPa ENE 8 km/h 8 km/h 64% 0 mm WeatherDisplay:10.37 W/m2 FEW
18:05 25.8 °C 18.7 °C 1015.8 hPa ENE 8 km/h 8 km/h 65% 0 mm WeatherDisplay:10.37 W/m2 FEW
18:10 25.7 °C 18.8 °C 1015.8 hPa ENE 8 km/h 8 km/h 66% 0 mm WeatherDisplay:10.37 W/m2 FEW
18:15 25.6 °C 18.8 °C 1015.8 hPa ENE 8 km/h 8 km/h 66% 0 mm WeatherDisplay:10.37 W/m2 FEW
18:20 25.6 °C 18.5 °C 1015.8 hPa ENE 8 km/h 8 km/h 65% 0 mm WeatherDisplay:10.37 W/m2 FEW
18:25 25.4 °C 18.6 °C 1015.8 hPa ENE 8 km/h 8 km/h 66% 0 mm WeatherDisplay:10.37 W/m2 FEW
18:30 25.3 °C 18.5 °C 1015.8 hPa ENE 8 km/h 8 km/h 66% 0 mm WeatherDisplay:10.37 W/m2 FEW
18:40 25.3 °C 18.4 °C 1015.8 hPa ENE 8 km/h 8 km/h 66% 0 mm WeatherDisplay:10.37 W/m2 FEW
18:45 25.2 °C 18.4 °C 1016.1 hPa ENE 8 km/h 8 km/h 66% 0 mm WeatherDisplay:10.37 W/m2 FEW
18:55 25.1 °C 18.5 °C 1016.1 hPa ENE 8 km/h 8 km/h 67% 0 mm WeatherDisplay:10.37 W/m2 FEW
19:00 24.9 °C 18.6 °C 1016.1 hPa ENE 8 km/h 8 km/h 68% 0 mm WeatherDisplay:10.37 W/m2 FEW
19:05 24.7 °C 18.7 °C 1016.1 hPa ENE 8 km/h 8 km/h 69% 0 mm WeatherDisplay:10.37 W/m2 FEW
19:10 24.6 °C 18.6 °C 1016.1 hPa ENE 8 km/h 8 km/h 69% 0 mm WeatherDisplay:10.37 W/m2 FEW
19:15 24.4 °C 18.6 °C 1016.1 hPa ENE 4.8 km/h 8 km/h 70% 0 mm WeatherDisplay:10.37 W/m2 FEW
19:20 24.3 °C 18.4 °C 1016.1 hPa ENE 4.8 km/h 4.8 km/h 70% 0 mm WeatherDisplay:10.37 W/m2 FEW
19:25 24.2 °C 18.6 °C 1016.1 hPa ENE 4.8 km/h 4.8 km/h 71% 0 mm WeatherDisplay:10.37 W/m2 FEW
19:30 24 °C 18.4 °C 1016.1 hPa ENE 4.8 km/h 4.8 km/h 71% 0 mm WeatherDisplay:10.37 W/m2 FEW
19:40 23.7 °C 18.6 °C 1016.1 hPa ENE 4.8 km/h 4.8 km/h 73% 0 mm WeatherDisplay:10.37 W/m2 FEW
19:45 23.6 °C 18.5 °C 1016.1 hPa ENE 4.8 km/h 4.8 km/h 73% 0 mm WeatherDisplay:10.37 W/m2 FEW
19:50 23.5 °C 18.6 °C 1016.1 hPa ENE 4.8 km/h 4.8 km/h 74% 0 mm WeatherDisplay:10.37 W/m2 FEW
19:55 23.3 °C 18.7 °C 1016.1 hPa ENE 4.8 km/h 4.8 km/h 75% 0 mm WeatherDisplay:10.37 W/m2 FEW
20:00 23.2 °C 18.6 °C 1016.1 hPa ENE 4.8 km/h 4.8 km/h 75% 0 mm WeatherDisplay:10.37 W/m2 FEW
20:05 23.1 °C 18.2 °C 1016.1 hPa ENE 4.8 km/h 4.8 km/h 74% 0 mm WeatherDisplay:10.37 W/m2 FEW
20:10 22.9 °C 18.3 °C 1016.1 hPa ENE 4.8 km/h 4.8 km/h 75% 0 mm WeatherDisplay:10.37 W/m2 FEW
20:15 22.9 °C 18.2 °C 1016.1 hPa ENE 3.2 km/h 4.8 km/h 75% 0 mm WeatherDisplay:10.37 W/m2 FEW
20:20 22.8 °C 18.3 °C 1016.1 hPa ENE 3.2 km/h 3.2 km/h 76% 0 mm WeatherDisplay:10.37 W/m2 FEW
20:25 22.7 °C 18.2 °C 1016.1 hPa ENE 3.2 km/h 3.2 km/h 76% 0 mm WeatherDisplay:10.37 W/m2 FEW
20:30 22.6 °C 18.1 °C 1016.1 hPa ENE 3.2 km/h 3.2 km/h 76% 0 mm WeatherDisplay:10.37 W/m2 FEW
20:35 22.4 °C 18 °C 1016.1 hPa ENE 3.2 km/h 3.2 km/h 76% 0 mm WeatherDisplay:10.37 W/m2 FEW
20:40 22.4 °C 18.2 °C 1016.1 hPa ENE 3.2 km/h 3.2 km/h 77% 0 mm WeatherDisplay:10.37 W/m2 FEW
20:45 22.3 °C 18.1 °C 1016.1 hPa ENE 3.2 km/h 3.2 km/h 77% 0 mm WeatherDisplay:10.37 W/m2 FEW
20:50 22.2 °C 18 °C 1016.1 hPa ENE 3.2 km/h 3.2 km/h 77% 0 mm WeatherDisplay:10.37 W/m2 FEW
20:55 22.1 °C 18.1 °C 1016.1 hPa ENE 3.2 km/h 3.2 km/h 78% 0 mm WeatherDisplay:10.37 W/m2 FEW
21:00 21.9 °C 17.9 °C 1016.1 hPa ENE 3.2 km/h 3.2 km/h 78% 0 mm WeatherDisplay:10.37 W/m2 FEW
21:10 21.8 °C 17.9 °C 1016.1 hPa ENE 3.2 km/h 3.2 km/h 79% 0 mm WeatherDisplay:10.37 W/m2 FEW
21:15 21.7 °C 17.8 °C 1016.5 hPa NE 3.2 km/h 3.2 km/h 79% 0 mm WeatherDisplay:10.37 W/m2 FEW
21:20 21.6 °C 17.8 °C 1016.5 hPa NNE 3.2 km/h 3.2 km/h 79% 0 mm WeatherDisplay:10.37 W/m2 FEW
21:25 21.5 °C 17.9 °C 1016.5 hPa NNE 3.2 km/h 3.2 km/h 80% 0 mm WeatherDisplay:10.37 W/m2 FEW
21:30 21.4 °C 17.8 °C 1016.5 hPa NNE 3.2 km/h 3.2 km/h 80% 0 mm WeatherDisplay:10.37 W/m2 FEW
21:40 21.3 °C 18.1 °C 1016.5 hPa NNE 3.2 km/h 3.2 km/h 82% 0 mm WeatherDisplay:10.37 W/m2 FEW
21:45 21.3 °C 18.1 °C 1016.5 hPa NNE 3.2 km/h 3.2 km/h 82% 0 mm WeatherDisplay:10.37 W/m2 FEW
21:50 21.2 °C 17.8 °C 1016.5 hPa NNE 3.2 km/h 3.2 km/h 81% 0 mm WeatherDisplay:10.37 W/m2 FEW
21:55 21.2 °C 17.9 °C 1016.1 hPa NNE 3.2 km/h 3.2 km/h 82% 0 mm WeatherDisplay:10.37 W/m2 FEW
22:00 21.2 °C 17.9 °C 1016.1 hPa NNE 3.2 km/h 3.2 km/h 82% 0 mm WeatherDisplay:10.37 W/m2 FEW
22:05 21.1 °C 18.1 °C 1016.1 hPa NNE 3.2 km/h 3.2 km/h 83% 0 mm WeatherDisplay:10.37 W/m2 FEW
22:10 21 °C 18 °C 1016.5 hPa NNE 3.2 km/h 3.2 km/h 83% 0 mm WeatherDisplay:10.37 W/m2 FEW
22:15 20.9 °C 17.9 °C 1016.5 hPa NNE 3.2 km/h 3.2 km/h 83% 0 mm WeatherDisplay:10.37 W/m2 CLR
22:20 20.8 °C 17.8 °C 1016.5 hPa NNE 3.2 km/h 3.2 km/h 83% 0 mm WeatherDisplay:10.37 W/m2 CLR
22:25 20.8 °C 18 °C 1016.5 hPa NNE 3.2 km/h 3.2 km/h 84% 0 mm WeatherDisplay:10.37 W/m2 CLR
22:30 20.7 °C 17.9 °C 1016.5 hPa NNE 3.2 km/h 3.2 km/h 84% 0 mm WeatherDisplay:10.37 W/m2 CLR
22:35 20.7 °C 17.8 °C 1016.5 hPa NNE 3.2 km/h 3.2 km/h 84% 0 mm WeatherDisplay:10.37 W/m2 CLR
22:40 20.6 °C 17.8 °C 1016.5 hPa NNE 3.2 km/h 3.2 km/h 84% 0 mm WeatherDisplay:10.37 W/m2 CLR
22:45 20.6 °C 17.9 °C 1016.5 hPa NNE 3.2 km/h 3.2 km/h 85% 0 mm WeatherDisplay:10.37 W/m2 CLR
22:50 20.4 °C 17.8 °C 1016.5 hPa NNE 3.2 km/h 3.2 km/h 85% 0 mm WeatherDisplay:10.37 W/m2 CLR
22:55 20.4 °C 17.8 °C 1016.8 hPa NNE 3.2 km/h 3.2 km/h 85% 0 mm WeatherDisplay:10.37 W/m2 CLR
23:00 20.3 °C 17.7 °C 1016.8 hPa NNE 3.2 km/h 3.2 km/h 85% 0 mm WeatherDisplay:10.37 W/m2 CLR
23:10 20.2 °C 17.8 °C 1016.5 hPa NNE 3.2 km/h 3.2 km/h 86% 0 mm WeatherDisplay:10.37 W/m2 CLR
23:25 20.1 °C 17.7 °C 1016.8 hPa North 4.8 km/h 4.8 km/h 86% 0 mm WeatherDisplay:10.37 W/m2 CLR
23:30 20.1 °C 17.7 °C 1016.8 hPa North 4.8 km/h 4.8 km/h 86% 0 mm WeatherDisplay:10.37 W/m2 CLR
23:35 20.1 °C 17.7 °C 1016.8 hPa North 4.8 km/h 4.8 km/h 86% 0 mm WeatherDisplay:10.37 W/m2 CLR
23:40 20 °C 17.8 °C 1016.5 hPa North 4.8 km/h 4.8 km/h 87% 0 mm WeatherDisplay:10.37 W/m2 CLR
23:45 20 °C 17.8 °C 1016.5 hPa North 4.8 km/h 4.8 km/h 87% 0 mm WeatherDisplay:10.37 W/m2 CLR
23:50 19.9 °C 17.7 °C 1016.5 hPa North 4.8 km/h 4.8 km/h 87% 0 mm WeatherDisplay:10.37 W/m2 CLR
23:55 19.9 °C 17.7 °C 1016.5 hPa North 4.8 km/h 4.8 km/h 87% 0 mm WeatherDisplay:10.37 W/m2 CLR
Piedmont Bend
Compliments of Weather Underground - 4 mb